Flag for U.S.A. Weather past 2 weeks in Augusta, Maine, U.S.A.

Now
45 °F

Mostly cloudy.


Feels Like: 44 °F
Forecast: 42 / 58 °F
Wind: 3 mph from Southwest

Location: Augusta State Airport

Current Time: Oct 25, 2014 at 8:55:00 AM

Latest Report: Oct 25, 2014 at 7:53 AM


Visibility: 10 mi

Pressure: 29.70 "Hg

Humidity: 68%

Dew point: 35 °F

Location of AugustaLocation

Historic Weather in Augusta — Graph

°F

Augusta temperature yesterday

Maximum temperature yesterday: 47 °F (at 1:53 PM)
Minimum temperature yesterday: 45 °F (at 5:53 AM)
Average temperature yesterday: 46 °F

Past Weeks' High & Low Weather Summary

 TemperatureHumidityPressure
High73 °F (Oct 15, 1:53 PM)100% (Oct 13, 4:49 AM)30.34 "Hg (Oct 13, 4:49 AM)
Low34 °F (Oct 13, 5:53 AM)32% (Oct 20, 3:53 PM)29.47 "Hg (Oct 18, 4:53 PM)
Average52 °F79%29.95 "Hg
* Reported Oct 10 7:53 AM — Oct 25 7:53 AM, Augusta, Weather by CustomWeather, © 2014

Note: Actual official high and low records may vary slightly from our data, if they occured in-between our weather recording intervals... More about our weather records

Advertising

Augusta weather history for previous 24 hours

 ConditionsComfort  
Time TempWeatherWind HumidityBarometerVisibility
7:53 AM
Oct 25
45 °FMostly cloudy.3 mph68%29.70 "Hg10 mi
6:53 AM45 °FMostly cloudy.No wind63%29.68 "Hg10 mi
5:53 AM44 °FPassing clouds.5 mph68%29.69 "Hg10 mi
4:53 AM44 °FClear.3 mph71%29.68 "Hg10 mi
3:53 AM46 °FPassing clouds.3 mph68%29.67 "Hg10 mi
2:53 AM47 °FOvercast.7 mph77%29.68 "Hg10 mi
1:53 AM48 °FOvercast.9 mph71%29.68 "Hg10 mi
12:53 AM47 °FPassing clouds.10 mph74%29.68 "Hg10 mi
11:53 PM
Oct 24
46 °FOvercast.7 mph79%29.69 "Hg10 mi
10:53 PM47 °FOvercast.12 mph77%29.70 "Hg10 mi
9:53 PM46 °FOvercast.13 mph83%29.70 "Hg10 mi
8:53 PM47 °FOvercast.12 mph77%29.70 "Hg10 mi
7:53 PM46 °FOvercast.14 mph79%29.70 "Hg10 mi
6:53 PM46 °FOvercast.16 mph83%29.68 "Hg10 mi
5:53 PM47 °FOvercast.18 mph80%29.67 "Hg10 mi
4:53 PM46 °FLight rain. Mostly cloudy.16 mph86%29.66 "Hg10 mi
3:53 PM47 °FMostly cloudy.18 mph83%29.66 "Hg10 mi
2:53 PM47 °FMostly cloudy.17 mph86%29.67 "Hg10 mi
1:53 PM47 °FOvercast.15 mph90%29.68 "Hg10 mi
12:53 PM46 °FMostly cloudy.14 mph93%29.69 "Hg8 mi
11:53 AM46 °FLight rain. Fog.14 mph93%29.70 "Hg3 mi
10:53 AM46 °FMostly cloudy.16 mph93%29.71 "Hg7 mi
9:53 AM46 °FLight rain. Mostly cloudy.15 mph93%29.70 "Hg10 mi
8:53 AM45 °FFog.14 mph97%29.70 "Hg5 mi
Weather by CustomWeather, © 2014

See weather overviewHow to use our weather pages